Location: Cadeilhan
(42.8161°N, 0.3161°E)
Time: 04:10:11
(UTC+00:00)

Meteor 1-31 Rocket - Pass Details

Date: 18 February 2020
Orbit: 522 x 546 km, 97.6° (Epoch: 09 April)

Event Time Altitude Azimuth Distance (km) Brightness Sun altitude
Rises 05:30:12 0° 359° (N) 2,664 6.3 -15.8°
Reaches altitude 10° 05:32:36 10° 345° (NNW) 1,772 5.2 -15.3°
Enters shadow 05:35:07 22° 305° (NW) 1,172 4.0 -14.9°
